KM4FZA Weather Reports


Display with metric or nautical units.
time (UTC)temp
F
wind
direction
speed
MPH
gust
MPH
rain 1hr
in
rain 24hr
in
rain mn
in
humidity
%
barometer
mb
20260510213515 86 219 3.0 6.0 0.00 0.00 0.00 25 1017.7
20260510212527 85 270 2.0 4.0 0.00 0.00 0.00 25 1017.6
20260510211532 85 220 6.0 10.0 0.00 0.00 0.00 25 1017.6
20260510210520 85 277 5.0 7.0 0.00 0.00 0.00 25 1017.7
20260510205525 84 241 3.0 6.0 0.00 0.00 0.00 26 1017.6
20260510204530 84 237 3.0 6.0 0.00 0.00 0.00 25 1017.7
20260510203518 84 209 3.0 6.0 0.00 0.00 0.00 26 1017.9
20260510202525 85 240 5.0 6.0 0.00 0.00 0.00 26 1017.8
20260510201529 85 213 2.0 5.0 0.00 0.00 0.00 26 1017.8
20260510200516 85 212 6.0 8.0 0.00 0.00 0.00 26 1017.9
20260510195522 84 231 5.0 8.0 0.00 0.00 0.00 26 1017.9
20260510194527 85 202 5.0 9.0 0.00 0.00 0.00 27 1017.9
20260510193515 84 228 5.0 7.0 0.00 0.00 0.00 28 1018.0
20260510192521 84 280 3.0 7.0 0.00 0.00 0.00 28 1018.1
20260510191547 85 279 3.0 4.0 0.00 0.00 0.00 28 1018.2
20260510190532 85 239 2.0 5.0 0.00 0.00 0.00 29 1018.2
20260510185539 84 232 5.0 7.0 0.00 0.00 0.00 28 1018.3
20260510184706 84 246 3.0 4.0 0.00 0.00 0.00 29 1018.3
20260510183530 84 123 3.0 6.0 0.00 0.00 0.00 29 1018.4
20260510182518 85 276 4.0 6.0 0.00 0.00 0.00 26 1018.5
20260510181523 83 90 3.0 5.0 0.00 0.00 0.00 29 1018.6
20260510180528 84 267 3.0 7.0 0.00 0.00 0.00 29 1018.7
20260510175536 83 104 3.0 4.0 0.00 0.00 0.00 29 1018.7
20260510174522 83 83 3.0 4.0 0.00 0.00 0.00 29 1018.8
20260510173527 84 82 2.0 5.0 0.00 0.00 0.00 31 1019.0
20260510172516 83 278 3.0 7.0 0.00 0.00 0.00 30 1019.0
20260510171520 82 108 4.0 6.0 0.00 0.00 0.00 31 1019.1
20260510170526 82 107 3.0 7.0 0.00 0.00 0.00 31 1019.1
20260510165531 82 58 2.0 3.0 0.00 0.00 0.00 30 1019.1
20260510164518 81 98 5.0 8.0 0.00 0.00 0.00 30 1019.2
20260510163545 81 101 4.0 8.0 0.00 0.00 0.00 32 1019.2
20260510162530 81 97 4.0 5.0 0.00 0.00 0.00 34 1019.3
20260510161518 81 354 4.0 8.0 0.00 0.00 0.00 34 1019.3
20260510160523 81 151 2.0 5.0 0.00 0.00 0.00 34 1019.4
20260510155528 81 78 3.0 5.0 0.00 0.00 0.00 35 1019.2
20260510154517 80 91 2.0 4.0 0.00 0.00 0.00 37 1019.3
20260510153521 79 99 3.0 5.0 0.00 0.00 0.00 38 1019.3
20260510152527 79 206 3.0 4.0 0.00 0.00 0.00 38 1019.5
20260510151613 78 158 3.0 5.0 0.00 0.00 0.00 41 1019.6
20260510150520 77 186 4.0 5.0 0.00 0.00 0.00 41 1019.6
20260510145525 77 102 4.0 7.0 0.00 0.00 0.00 43 1019.6
20260510144531 77 255 3.0 5.0 0.00 0.00 0.00 44 1019.6
20260510143518 76 90 3.0 5.0 0.00 0.00 0.00 49 1019.4
20260510142524 75 105 3.0 4.0 0.00 0.00 0.00 50 1019.3
20260510141530 75 276 4.0 7.0 0.00 0.00 0.00 51 1019.3
20260510140517 74 218 3.0 6.0 0.00 0.00 0.00 56 1019.3
20260510135522 73 247 3.0 6.0 0.00 0.00 0.00 59 1019.3
20260510134528 73 268 3.0 5.0 0.00 0.00 0.00 62 1019.3
20260510133515 71 181 2.0 4.0 0.00 0.00 0.00 68 1019.3
20260510132521 70 265 4.0 6.0 0.00 0.00 0.00 70 1019.3
20260510131526 71 242 3.0 6.0 0.00 0.00 0.00 72 1019.3
20260510130533 70 232 3.0 5.0 0.00 0.00 0.00 78 1019.2
20260510125539 68 254 3.0 5.0 0.00 0.00 0.00 84 1019.2
20260510124525 66 202 2.0 3.0 0.00 0.00 0.00 90 1019.0
20260510123550 64 217 3.0 4.0 0.00 0.00 0.00 96 1018.6
20260510122518 61 267 2.0 4.0 0.00 0.00 0.00 99 1018.5
20260510121523 60 262 3.0 4.0 0.00 0.00 0.00 99 1018.4
20260510120530 59 270 1.0 4.0 0.00 0.00 0.00 99 1018.3
20260510115536 57 0.0 0.0 0.00 0.00 0.00 99 1018.1
20260510114622 56 0.0 0.0 0.00 0.00 0.00 99 1018.0
20260510113527 55 0.0 0.0 0.00 0.00 0.00 99 1017.9
20260510112516 55 0.0 0.0 0.00 0.00 0.00 99 1017.8
20260510111520 54 0.0 0.0 0.00 0.00 0.00 99 1017.7
20260510110526 54 0.0 0.0 0.00 0.00 0.00 99 1017.6
20260510105531 54 0.0 0.0 0.00 0.00 0.00 99 1017.3
20260510104519 54 0.0 0.0 0.00 0.00 0.00 99 1017.1
20260510103546 54 0.0 0.0 0.00 0.00 0.00 99 1017.1
20260510102530 54 0.0 0.0 0.00 0.00 0.00 99 1016.9
20260510101518 55 0.0 0.0 0.00 0.00 0.00 99 1016.8
20260510100523 55 0.0 0.0 0.00 0.00 0.00 99 1016.7
20260510095528 55 0.0 0.0 0.00 0.00 0.00 99 1016.6
20260510094516 55 0.0 0.0 0.00 0.00 0.00 99 1016.5
20260510093522 56 0.0 0.0 0.00 0.00 0.00 99 1016.4
20260510092527 56 0.0 0.0 0.00 0.00 0.00 99 1016.3
20260510091535 56 0.0 0.0 0.00 0.00 0.00 99 1016.2
20260510090520 56 0.0 0.0 0.00 0.00 0.00 99 1016.2
20260510085525 56 0.0 0.0 0.00 0.00 0.00 99 1016.0
20260510084532 57 0.0 0.0 0.00 0.00 0.00 99 1015.8
20260510083519 56 0.0 0.0 0.00 0.00 0.00 99 1015.8
20260510082524 57 0.0 0.0 0.00 0.00 0.00 99 1015.8
20260510081550 57 0.0 0.0 0.00 0.00 0.00 99 1015.8
20260510080517 57 0.0 0.0 0.00 0.00 0.00 99 1015.7
20260510075523 57 0.0 0.0 0.00 0.00 0.00 99 1015.5
20260510074528 57 0.0 0.0 0.00 0.00 0.00 99 1015.5
20260510073516 57 0.0 0.0 0.00 0.00 0.00 99 1015.5
20260510072521 57 0.0 0.0 0.00 0.00 0.00 99 1015.5
20260510071527 58 0.0 0.0 0.00 0.00 0.00 99 1015.5
20260510070532 58 272 2.0 2.0 0.00 0.00 0.00 99 1015.5
20260510065520 58 0.0 0.0 0.00 0.00 0.00 99 1015.2
20260510064526 58 0.0 0.0 0.00 0.00 0.00 99 1015.5
20260510063531 58 0.0 0.0 0.00 0.00 0.00 99 1015.5
20260510062518 58 0.0 0.0 0.00 0.00 0.00 99 1015.5
20260510061544 58 0.0 0.0 0.00 0.00 0.00 99 1015.5
20260510060529 58 0.0 0.0 0.00 0.00 0.00 99 1015.5
20260510055517 59 0.0 0.0 0.00 0.00 0.00 99 1015.5
20260510054523 59 0.0 0.0 0.00 0.00 0.00 99 1015.3
20260510053528 59 0.0 0.0 0.00 0.00 0.00 99 1015.5
20260510052515 59 0.0 0.0 0.00 0.00 0.00 99 1015.6
20260510051521 59 0.0 0.0 0.00 0.00 0.00 98 1015.7
20260510050546 59 0.0 0.0 0.00 0.00 0.00 97 1015.5
20260510045525 60 0.0 0.0 0.00 0.00 0.00 98 1015.7
20260510044519 60 0.0 0.0 0.00 0.00 0.00 96 1015.7
20260510043525 61 0.0 0.0 0.00 0.00 0.00 96 1015.8
20260510042545 61 0.0 0.0 0.00 0.00 0.00 94 1015.8
20260510041538 62 225 0.0 2.0 0.00 0.00 0.00 94 1015.9
20260510040523 62 230 1.0 2.0 0.00 0.00 0.00 94 1016.0
20260510035543 62 0.0 0.0 0.00 0.00 0.00 93 1016.0
20260510034516 62 0.0 0.0 0.00 0.00 0.00 92 1015.8
20260510033522 62 0.0 0.0 0.00 0.00 0.00 92 1015.8
20260510032521 63 239 2.0 3.0 0.00 0.00 0.00 91 1015.8
20260510031514 63 0.0 0.0 0.00 0.00 0.00 91 1015.8
20260510030520 63 199 1.0 3.0 0.00 0.00 0.00 90 1015.8
20260510025520 63 251 1.0 2.0 0.00 0.00 0.00 89 1015.7
20260510024519 64 264 2.0 3.0 0.00 0.00 0.00 89 1015.5
20260510023519 64 243 2.0 3.0 0.00 0.00 0.00 89 1015.5
20260510022540 64 264 3.0 4.0 0.00 0.00 0.00 89 1015.5
20260510021518 64 264 3.0 3.0 0.00 0.00 0.00 89 1015.5
20260510020517 64 270 2.0 3.0 0.00 0.00 0.00 89 1015.3
20260510015517 64 280 2.0 3.0 0.00 0.00 0.00 89 1015.2
20260510014517 64 272 2.0 4.0 0.00 0.00 0.00 89 1015.0
20260510013516 64 267 3.0 4.0 0.00 0.00 0.00 89 1014.8
20260510012515 64 255 4.0 6.0 0.00 0.00 0.00 90 1014.7
20260510011516 63 268 3.0 4.0 0.00 0.00 0.00 93 1014.7
20260510010532 63 242 2.0 3.0 0.00 0.00 0.00 93 1014.5
20260510005600 63 270 1.0 3.0 0.00 0.00 0.00 92 1014.2
20260510004525 64 0.0 0.0 0.00 0.00 0.00 89 1014.2
20260510003531 65 0.0 0.0 0.00 0.00 0.00 86 1014.2
20260510002518 66 0.0 0.0 0.00 0.00 0.00 84 1014.1
20260510001525 67 0.0 0.0 0.00 0.00 0.00 81 1014.1
20260510000529 68 0.0 0.0 0.00 0.00 0.00 80 1013.8
20260509235517 68 284 1.0 3.0 0.00 0.00 0.00 78 1013.8
20260509234543 69 274 1.0 3.0 0.00 0.00 0.00 76 1013.8
20260509233528 70 0.0 0.0 0.00 0.00 0.00 75 1013.8
20260509232516 70 281 2.0 4.0 0.00 0.00 0.00 72 1013.7
20260509231522 71 260 3.0 5.0 0.00 0.00 0.00 69 1013.6
20260509230527 72 266 3.0 4.0 0.00 0.00 0.00 67 1013.3
20260509225532 72 269 4.0 7.0 0.00 0.00 0.00 66 1013.5
20260509224540 73 241 5.0 6.0 0.00 0.00 0.00 65 1013.3
20260509223526 73 247 4.0 7.0 0.00 0.00 0.00 63 1013.3
20260509222551 75 239 5.0 8.0 0.00 0.00 0.00 60 1013.2
20260509221518 75 250 5.0 7.0 0.00 0.00 0.00 60 1013.1
20260509220523 74 264 5.0 7.0 0.00 0.00 0.00 61 1013.2
20260509215529 75 223 6.0 9.0 0.00 0.00 0.00 61 1013.3
20260509214517 74 274 4.0 7.0 0.00 0.00 0.00 65 1013.3